Weather History for KBBG - August, 2013

Change the Weather History Date:

Tuesday, August 6, 2013

  Actual Average (KHRO) Record (KHRO)
Temperature  
Mean Temperature 78 °F 79 °F  
Max Temperature 86 °F 90 °F 108 °F (1929)
Min Temperature 69 °F 68 °F 48 °F (1948)
Degree Days  
Heating Degree Days 0 0  
Month to date heating degree days 0  
Since 1 June heating degree days 6  
Since 1 July heating degree days 0  
Cooling Degree Days 12 14  
Month to date cooling degree days 84  
Year to date cooling degree days 902  
Since 1 June cooling degree days 763  
Growing Degree Days 28 (Base 50)    
Moisture  
Dew Point 72 °F    
Average Humidity 88    
Maximum Humidity 100    
Minimum Humidity 53    
Precipitation  
Precipitation 0.00 in 0.13 in 3.36 in (1999)
Month to date precipitation 0.77  
Year to date precipitation 26.15  
Snow  
Snow 0.00 in 0.00 in - ()
Month to date snowfall 0.0  
Since 1 June snowfall 0.0  
Since 1 July snowfall 0.0  
Snow Depth -    
Sea Level Pressure  
Sea Level Pressure 29.92 in    
Wind  
Wind Speed 5 mph (SE)    
Max Wind Speed 17 mph    
Max Gust Speed 18 mph    
Visibility 10 miles    
Events      
T = Trace of Precipitation, MM = Missing Value Source: NWS Daily Summary

Daily Weather History Graph

Daily Weather History Graph

Search for Another Location

Airport or City:

Trip Planner

Search our weather history database for the weather conditions in past years. The results will help you decide how hot, cold, wet, or windy it might be!

Date:

Astronomy

Aug. 06, 2013 Rise Set
Actual Time 6:23 AM CDT 8:13 PM CDT
Civil Twilight 5:55 AM CDT 8:41 PM CDT
Nautical Twilight 5:21 AM CDT 9:15 PM CDT
Astronomical Twilight 4:44 AM CDT 9:51 PM CDT
Moon 6:13 AM CDT (8/6) 7:51 PM CDT (8/6)
Length of Visible Light 14h 46m
Length of Day
13h 50m
Waning Crescent, 0% of the Moon is Illuminated
Aug 6
Waning Crescent
Aug 6
New
Aug 14
First Quarter
Aug 20
Full
Aug 28
Last Quarter

Hourly Weather History & Observations

Time (CDT) Temp. Heat Index Dew Point Humidity Pressure Visibility Wind Dir Wind Speed Gust Speed Precip Events Conditions
12:15 AM 73.4 °F - 68.0 °F 83% 29.94 in 10.0 mi SSE 5.8 mph - N/A   Clear
12:35 AM 73.4 °F - 69.8 °F 88% 29.94 in 10.0 mi Calm Calm - N/A   Clear
12:55 AM 73.4 °F - 69.8 °F 88% 29.92 in 10.0 mi SSE 4.6 mph - N/A   Partly Cloudy
1:15 AM 73.4 °F - 69.8 °F 88% 29.92 in 10.0 mi SSE 4.6 mph - N/A   Mostly Cloudy
1:35 AM 73.4 °F - 71.6 °F 94% 29.91 in 10.0 mi Calm Calm - N/A   Overcast
1:55 AM 73.4 °F - 71.6 °F 94% 29.89 in 10.0 mi South 5.8 mph - N/A   Mostly Cloudy
2:15 AM 73.4 °F - 71.6 °F 94% 29.88 in 10.0 mi South 5.8 mph - N/A   Clear
2:35 AM 75.2 °F - 71.6 °F 89% 29.89 in 10.0 mi Calm Calm - N/A   Partly Cloudy
2:55 AM 75.2 °F - 73.4 °F 94% 29.90 in 10.0 mi Calm Calm - N/A   Mostly Cloudy
3:15 AM 73.4 °F - 73.4 °F 100% 29.89 in 9.0 mi Calm Calm - N/A   Mostly Cloudy
3:35 AM 75.2 °F - 73.4 °F 94% 29.89 in 10.0 mi Calm Calm - N/A   Partly Cloudy
3:55 AM 77.0 °F - 71.6 °F 83% 29.89 in 10.0 mi Calm Calm - N/A   Partly Cloudy
4:15 AM 73.4 °F - 71.6 °F 94% 29.93 in 9.0 mi NNW 5.8 mph 16.1 mph N/A   Mostly Cloudy
4:35 AM 71.6 °F - 71.6 °F 100% 29.94 in 7.0 mi NNW 8.1 mph - N/A   Overcast
4:55 AM 71.6 °F - 69.8 °F 94% 29.94 in 10.0 mi NNW 6.9 mph - N/A   Overcast
5:15 AM 71.6 °F - 69.8 °F 94% 29.93 in 10.0 mi NNW 8.1 mph - N/A   Mostly Cloudy
5:35 AM 71.6 °F - 69.8 °F 94% 29.95 in 10.0 mi NW 8.1 mph - N/A   Mostly Cloudy
5:55 AM 71.6 °F - 69.8 °F 94% 29.94 in 10.0 mi Calm Calm - N/A   Scattered Clouds
6:15 AM 71.6 °F - 69.8 °F 94% 29.95 in 10.0 mi Calm Calm - N/A   Partly Cloudy
6:50 AM 71.6 °F - 69.8 °F 94% 29.96 in 10.0 mi ESE 5.8 mph - N/A   Overcast
7:48 AM 71.6 °F - 69.8 °F 94% 29.96 in 10.0 mi ESE 9.2 mph - N/A   Overcast
8:03 AM 71.6 °F - 69.8 °F 94% 29.96 in 10.0 mi ESE 10.4 mph 18.4 mph N/A   Overcast
8:50 AM 71.6 °F - 68.0 °F 88% 30.00 in 10.0 mi ESE 11.5 mph - N/A   Overcast
9:47 AM 69.8 °F - 68.0 °F 94% 30.00 in 10.0 mi SE 9.2 mph - N/A   Overcast
10:45 AM 69.8 °F - 68.0 °F 94% 30.00 in 10.0 mi SE 11.5 mph - N/A   Overcast
11:50 AM 71.6 °F - 53.6 °F 53% 29.99 in 10.0 mi SE 12.7 mph - N/A   Mostly Cloudy
12:47 PM 77.0 °F - 71.6 °F 83% 29.98 in 10.0 mi SSE 17.3 mph - N/A   Mostly Cloudy
1:50 PM 80.6 °F 85.4 °F 73.4 °F 79% 29.96 in 10.0 mi SE 9.2 mph - N/A   Mostly Cloudy
2:45 PM 84.2 °F 90.9 °F 73.4 °F 70% 29.95 in 10.0 mi SE 5.8 mph - N/A   Scattered Clouds
3:45 PM 84.2 °F 90.9 °F 73.4 °F 70% 29.92 in 10.0 mi South 6.9 mph - N/A   Mostly Cloudy
4:45 PM 86.0 °F 93.4 °F 73.4 °F 66% 29.92 in 10.0 mi SE 5.8 mph - N/A   Mostly Cloudy
5:45 PM 86.0 °F 95.1 °F 75.2 °F 70% 29.89 in 10.0 mi SSE 5.8 mph - N/A   Scattered Clouds
6:45 PM 86.0 °F 96.9 °F 77.0 °F 74% 29.87 in 10.0 mi SSE 8.1 mph - N/A   Scattered Clouds
7:45 PM 84.2 °F 94.1 °F 77.0 °F 79% 29.88 in 10.0 mi SSE 5.8 mph - N/A   Scattered Clouds
8:45 PM 80.6 °F 87.1 °F 77.0 °F 89% 29.88 in 10.0 mi SE 6.9 mph - N/A   Partly Cloudy
8:55 PM 80.6 °F 86.2 °F 75.2 °F 84% 29.88 in 10.0 mi SSE 5.8 mph - N/A   Clear
9:15 PM 80.6 °F 86.2 °F 75.2 °F 84% 29.89 in 10.0 mi SE 5.8 mph - N/A   Clear
9:35 PM 80.6 °F 86.2 °F 75.2 °F 84% 29.90 in 10.0 mi SE 5.8 mph - N/A   Clear
9:55 PM 78.8 °F - 77.0 °F 94% 29.90 in 10.0 mi SE 3.5 mph - N/A   Clear
10:15 PM 77.0 °F - 77.0 °F 100% 29.90 in 10.0 mi SE 5.8 mph - N/A   Clear
10:35 PM 77.0 °F - 75.2 °F 94% 29.91 in 10.0 mi SE 4.6 mph - N/A   Clear
10:55 PM 78.8 °F - 75.2 °F 89% 29.91 in 10.0 mi ESE 6.9 mph - N/A   Clear
11:15 PM 77.0 °F - 77.0 °F 100% 29.91 in 9.0 mi ESE 6.9 mph - N/A   Clear
11:35 PM 77.0 °F - 77.0 °F 100% 29.91 in 10.0 mi SE 6.9 mph - N/A   Clear
11:55 PM 77.0 °F - 77.0 °F 100% 29.91 in 9.0 mi SSE 4.6 mph - N/A   Clear